カタログに戻る

KUIPER-00527

運用中通信LEO
NORAD 69269·PAYLOAD·🇺🇸 United States

打ち上げ May 29, 2026 から Vandenberg Space Force Base

Loading…

次のパス (今後24時間)

TLE

最新Source: CelesTrak SupGP

元期: Sep 14, 2026, 21:15 UTC

1 69269C 26118C   26257.88547454  .00002515  00000+0  32915-3 0  2579
2 69269  51.8992   1.6490 0000430  99.9805 153.8232 14.79933668    16

AllMySatでKUIPER-00527をリアルタイム追跡

Download on the App Store